CZ-6A DEB

Satellite information

Favourite Embed

Satellite Type and Status

DEBRISIN ORBIT

Key statistics

Satellite CZ-6A DEB at a glance.

Uptime

1030

Days in orbit

Revolutions

≈ 14.6

Per day

Orbit

SSO

Sun Synchronous Orbit

Inclination

98.7

Latest

Satellite identification and parameters

Extended collection of information and parameters for CZ-6A DEB.

Object identification

Identified? True

Debris? True

Object name: CZ-6A DEB

International designator: 2022-151YH

Object number (NORAD): 55535

Object ID (CCSDS): 55535

Country: PEOPLES REPUBLIC OF CHINA (PRC)

Current information (Y/N): Y

RCS size: SMALL

Orbital parameters

Period: 98.33 minutes

Inclination: 98.6522 deg

SMA: 7056.958 km

Apoapsis: 738.44 km

Periapsis: 619.206 km

RAAN: 296.9223 deg

Eccentricy: 0.00844797

Argument of periapsis: 83.8816 deg

Mean anomaly: 277.2002 deg

Mean motion: 14.64456392 rev/day

Mean motion (dot): 0.00017694 rev/day2

B* drag term: 0.0031751084 1/REarth

Two-line elements (TLE)

Creation date: Sept. 6, 2025, 2:09 a.m.

Reference frame: TEME

Reference center: EARTH

Epoch: Sept. 5, 2025, 4:55 p.m. UTC

TLE line 0: 0 CZ-6A DEB

TLE line 1: 1 55535U 22151YH 25248.70528389 .00017694 00000-0 31751-2 0 9993

TLE line 2: 2 55535 98.6522 296.9223 0084480 83.8816 277.2002 14.64456392143415

Live tracking on map

Real-time ground track for satellite CZ-6A DEB.

In-orbit conjunctions

A list of the most updated potential collisions computed for object CZ-6A DEB.

Target Orbit TCA Probability of collision Miss distance Type
TITAN 3C TRANSTAGE DEB LEO 2025-01-08 00:21:36 0.0001233979 250.0 (m) DEBRIS
COSMOS 1275 DEB LEO 2024-08-31 08:58:56 0.0001027795 113.0 (m) DEBRIS

Associated space launch

Chinese satellite reported for atmospheric/ocean/environmental/spatial parameter research purposes, details TBD.

CZ-6A DEB was lifted into orbit during the mission ‘Long March 6A | Yunhai 3’, on board a Long March 6A space rocket.

The launch took place on Nov. 11, 2022, 10:52 p.m. from Launch Complex 9A.

For more information about the launch, click the button.

Launch to space Long March 6A | Yunhai 3
Long March 6A | Yunhai 3

Agency: N/A

Status: Launch Successful

Launch date: Nov. 11, 2022, 10:52 p.m. UTC

Rocket: Long March 6A

Launch pad: Launch Complex 9A

Location: Taiyuan Satellite Launch Center, People's Republic of China

...

Latest news about this satellite

There are no fresh news available about this satellite. Check back as we update our databases every day.


Newsletter sign-up

Weekly statistics, charts and insights to help you stay on top of the space industry.